Location: La Oliva
(42.2466°N, 2.9955°E)
Time: 07:26:52
(UTC+00:00)

SeaSat 1 - Pass Details

Date: 22 April 2021
Orbit: 744 x 747 km, 108.0° (Epoch: 07 May)

Event Time Altitude Azimuth Distance (km) Brightness Sun altitude
Rises 23:25:29 0° 18° (NNE) 3,201 6.6 -35.0°
Reaches altitude 10° 23:27:55 10° 9° (N) 2,273 5.7 -35.1°
Enters shadow 23:31:04 30° 336° (NNW) 1,335 4.1 -35.1°
